SL-14 DEB, 45269

Orbit data source: Space-Track

SL-14 DEB, 45269 is space debris in LEO originally from a launch on Thu, 15 Aug 1991 UTC launched from the Plesetsk Missile And Space Complex (PKMTR). Debris objects in space refer to the collection of defunct objects orbiting the Earth. Examples of debris include non-operational satellites, rocket bodies, and fragments generated from explosions, collisions, or faulty payload assembly.

Loading next visibility...
Identifier
45269, 1991-056F
Orbit
LEO
Country
Flag of CISCIS
Related business
Manufacturer
Unknown
Mission
Spacecraft
Bus & Motor
Unknown
Mass
Unknown
Launch date (UTC)
1991-08-15 (35 years ago)
Launch vehicle
Unknown
Launch site
Plesetsk Missile And Space Complex (PKMTR)
Object type
Payload
Rocket body
Debris
Shape & HBR
Unknown shape, 0.4 m
Radar Cross Section
Medium (>0.1 m² and <1 m²)

Expand to show TLE details & history
Last TLE update: 9 hours ago

TLE from 9 hours ago
0 SL-14 DEB
1 45269U 91056F   26175.14561433  .00000061  00000-0  11941-3 0  9991
2 45269  82.5753 128.7061 0028183  48.2122 312.1404 13.20599820306625
Epoch: 2026-06-24T03:29Z
TLE epoch observation values (Epoch: 2026-06-24T03:29:41.078Z)
Latitude
0.00002°
Longitude
163.97792°
Altitude
1,170.977 km
Speed
7.275 km/s
True Right ascension
08h 34m 49s
True Declination
0° 00' 00"
Sunlit
Object was in daylight at epoch
Visualization orbit readout
Latitude
Unknown
Longitude
Unknown
Altitude
Unknown
Speed
Unknown
Apparent Right ascension
Unknown
Apparent Declination
Unknown
Sunlit
N/A
Visualization observer readout
Local Sidereal Time
23:47:53
Azimuth
Unknown
Elevation
Unknown
Doppler factor
Unknown
Orbital elements
Apogee altitude
1,200.969 km
Perigee altitude
1,158.368 km
Semi-major axis
7,557.805 km
Eccentricity
0.00282
Inclination
82.5753°
RAAN
128.7061°
Arg. of periapsis
48.2122°
True anomaly
311.90036°
Mean anomaly
312.1404°
Eccentric anomaly
312.02044°
Mean motion
3.30331 °/min
Orbital period
108.98 mins
BSTAR
0.00011941
Loading maneuver chart data...
Computing Atmospheric mass density...
Loading historical data...
Loading historical data...
Loading historical data...
Loading historical data...
Loading historical data...
Loading historical data...
Loading historical data...

Documentation

Showing up to 5 results
|